Regional Weather Roundup
Issued by NWS

Home | Current Version | Previous Version | Text Only | Print | Product List | Glossary On
Versions: 1 2 3 4 5 6 7 8 9 10 11 12 13 14 15 16 17 18 19 20 21 22 23 24 25 26 27 28
000
ASCA42 TJSJ 221310
RWRPR
PUERTO RICO/U.S. VIRGIN ISLANDS HOURLY WEATHER ROUNDUP
NATIONAL WEATHER SERVICE SAN JUAN PR
900 AM AST SAT JUL 22 2017

PRZ001>002-007>008-010-221400-
PUERTO RICO

CITY           SKY/WX    TMP DP  RH WIND       PRES   REMARKS
SAN JUAN LMM   MOSUNNY   86  77  74 NE9       30.05R HX  97
AGUADILLA      MOSUNNY   82  75  78 E14       30.07R
CEIBA          CLOUDY    84  79  84 NE9       30.07R HX  96
$$

VIZ001>002-221400-
U.S. VIRGIN ISLANDS

CITY           SKY/WX    TMP DP  RH WIND       PRES   REMARKS
CHARLOTTE AMA  MOSUNNY   86  79  79 E9        30.04R HX  99
CHRISTIANSTED  MOSUNNY   88  79  74 E13       30.04R HX 102
$$

HOURLY WEATHER ROUNDUP FOR THE NEWS MEDIA

CITY           SKY/WX    TMP DP  RH WIND       PRES   REMARKS
ORLANDO        SUNNY     81  79  94 S6        30.09R
NEW YORK       PTSUNNY   84  68  58 NE6       29.89R
NEWARK         PTSUNNY   84  58  40 N9        29.89R
CHICAGO        LGT RAIN  72  68  87 NE15      29.73F
HARTFORD       SUNNY     80  62  54 CALM      29.87S
BOSTON         CLOUDY    76  59  55 NW9       29.88R
DALLAS         MOSUNNY   83  72  69 S7        29.95R
PHILADELPHIA   PTSUNNY   85  67  54 E9        29.90R
LOS ANGELES    CLOUDY    68  64  87 CALM      29.90S
WASHINGTON DC  PTSUNNY   81  70  69 NW6       29.93R



USA.gov is the U.S. government's official web portal to all federal, state and local government web resources and services.